EW8784 Weather Reports


time (UTC)temp
C
wind
direction
speed
KPH
gust
KPH
rain 1hr
cm
rain 24hr
cm
rain mn
cm
humidity
%
barometer
mb
20260505061504 22 194 0.0 0.0 0.00 0.00 0.00 36 1023.3
20260505060008 22 186 1.6 6.4 0.00 0.00 0.00 35 1023.1
20260505054504 22 94 8.0 16.1 0.00 0.00 0.00 32 1023.1
20260505053007 22 181 3.2 8.0 0.00 0.00 0.00 34 1023.1
20260505051504 22 143 1.6 11.3 0.00 0.00 0.00 35 1023.1
20260505041505 26 359 0.0 0.0 0.00 0.00 0.00 17 1023.3
20260505040008 25 359 0.0 0.0 0.00 0.00 0.00 13 1023.3
20260505034504 25 359 0.0 0.0 0.00 0.00 0.00 14 1023.2
20260505031504 23 359 0.0 0.0 0.00 0.00 0.00 15 1023.4
20260505030008 23 359 0.0 0.0 0.00 0.00 0.00 17 1023.4
20260505024503 23 359 0.0 0.0 0.00 0.00 0.00 17 1023.4
20260505023007 23 359 0.0 0.0 0.00 0.00 0.00 18 1023.6
20260505020002 23 1 0.0 0.0 0.00 0.00 0.00 15 1023.6
20260505014504 23 1 0.0 0.0 0.00 0.00 0.00 17 1023.5
20260505011504 22 1 0.0 0.0 0.00 0.00 0.00 15 1023.3
20260505010002 21 1 0.0 0.0 0.00 0.00 0.00 16 1023.3
20260505004505 21 1 0.0 0.0 0.00 0.00 0.00 15 1023.3
20260505003002 21 20 0.0 0.0 0.00 0.00 0.00 17 1023.1
20260505001506 21 20 0.0 0.0 0.00 0.00 0.00 18 1022.9
20260505000003 20 20 0.0 0.0 0.00 0.00 0.00 18 1023.0
20260504231504 18 17 0.0 0.0 0.00 0.00 0.00 23 1023.3
20260504230002 18 53 0.0 0.0 0.00 0.00 0.00 25 1023.4
20260504223006 17 53 0.0 0.0 0.00 0.00 0.00 28 1022.9
20260504220007 16 53 0.0 0.0 0.00 0.00 0.00 31 1022.7
20260504214530 15 53 0.0 0.0 0.00 0.00 0.00 32 1022.6
20260504211502 15 1 0.0 0.0 0.00 0.00 0.00 31 1022.1
20260504210006 15 1 0.0 0.0 0.00 0.05 0.00 29 1021.6
20260504203005 15 1 0.0 0.0 0.00 0.05 0.00 28 1020.9
20260504194503 15 1 0.0 0.0 0.00 0.05 0.00 31 1019.7
20260504193004 15 1 0.0 0.0 0.00 0.05 0.00 34 1019.1
20260504191502 15 333 0.0 0.0 0.00 0.05 0.00 35 1018.7
20260504190006 15 307 0.0 0.0 0.00 0.05 0.00 37 1018.3
20260504184504 15 300 0.0 0.0 0.00 0.05 0.00 38 1017.9
20260504183005 15 314 0.0 0.0 0.00 0.05 0.00 39 1017.3
20260504180005 15 349 0.0 0.0 0.00 0.05 0.00 40 1016.6
20260504174502 15 359 0.0 0.0 0.00 0.05 0.00 40 1016.3
20260504173004 15 359 0.0 0.0 0.00 0.05 0.00 40 1015.6
20260504171508 15 323 0.0 0.0 0.00 0.05 0.00 40 1015.1
20260504081507 21 120 8.0 20.9 0.00 0.05 0.05 45 1000.5